Orlando, FL

11:12 PM EST on February 21, 2017 (GMT -0500)
Executive

Weather History for KORL - March, 2012

Change the Weather History Date:

Friday, March 16, 2012

  Actual Average Record
Temperature  
Mean Temperature 74 °F -  
Max Temperature 84 °F 75 °F 89 °F (2016)
Min Temperature 63 °F 56 °F 46 °F (1999)
Cooling Degree Days 8    
Growing Degree Days 24 (Base 50)    
Moisture  
Dew Point 61 °F    
Average Humidity 72    
Maximum Humidity 93    
Minimum Humidity 40    
Precipitation  
Precipitation 0.00 in - - ()
Sea Level Pressure  
Sea Level Pressure 30.23 in    
Wind  
Wind Speed 4 mph (East)    
Max Wind Speed 14 mph    
Max Gust Speed 18 mph    
Visibility 10 miles    
Events      
Averages and records for this station are not official NWS values.
T = Trace of Precipitation, MM = Missing Value Source: NWS Daily Summary

Daily Weather History Graph

Daily Weather History Graph

Search for Another Location

Airport or City:

Trip Planner

Search our weather history database for the weather conditions in past years. The results will help you decide how hot, cold, wet, or windy it might be!

Date:

Astronomy

Mar. 16, 2012 Rise Set
Actual Time 7:33 AM EDT 7:34 PM EDT
Civil Twilight 7:09 AM EDT 7:58 PM EDT
Nautical Twilight 6:42 AM EDT 8:25 PM EDT
Astronomical Twilight 6:14 AM EDT 8:53 PM EDT
Moon 3:24 AM EDT (3/16) 2:17 PM EDT (3/16)
Length of Visible Light 12h 48m
Length of Day
12h 01m
Waning Crescent, 33% of the Moon is Illuminated
Mar 16
Waning Crescent
Mar 22
New
Mar 30
First Quarter
Apr 6
Full
Apr 13
Last Quarter

Hourly Weather History & Observations

Time (EDT) Temp. Heat Index Dew Point Humidity Pressure Visibility Wind Dir Wind Speed Gust Speed Precip Events Conditions
12:53 AM 66.0 °F - 62.1 °F 87% 30.25 in 10.0 mi East 4.6 mph - N/A   Clear
1:53 AM 66.0 °F - 62.1 °F 87% 30.23 in 10.0 mi Calm Calm - N/A   Clear
2:53 AM 66.0 °F - 62.1 °F 87% 30.22 in 10.0 mi ENE 3.5 mph - N/A   Clear
3:53 AM 64.9 °F - 62.1 °F 90% 30.21 in 10.0 mi Calm Calm - N/A   Clear
4:53 AM 64.0 °F - 61.0 °F 90% 30.21 in 10.0 mi Calm Calm - N/A   Partly Cloudy
5:53 AM 64.0 °F - 62.1 °F 93% 30.22 in 10.0 mi Calm Calm - N/A   Clear
6:53 AM 63.0 °F - 61.0 °F 93% 30.24 in 10.0 mi Calm Calm - N/A   Clear
7:53 AM 63.0 °F - 61.0 °F 93% 30.25 in 9.0 mi Calm Calm - N/A   Clear
8:53 AM 68.0 °F - 64.0 °F 87% 30.25 in 10.0 mi ENE 3.5 mph - N/A   Clear
9:53 AM 73.0 °F - 64.9 °F 76% 30.27 in 10.0 mi Variable 3.5 mph - N/A   Clear
10:53 AM 77.0 °F - 62.1 °F 60% 30.27 in 10.0 mi East 6.9 mph - N/A   Partly Cloudy
11:53 AM 78.1 °F - 61.0 °F 56% 30.27 in 10.0 mi East 8.1 mph - N/A   Scattered Clouds
1:53 PM 79.0 °F - 59.0 °F 50% 30.23 in 10.0 mi ENE 9.2 mph - N/A   Mostly Cloudy
2:53 PM 82.9 °F 82.8 °F 59.0 °F 44% 30.21 in 10.0 mi NE 8.1 mph - N/A   Mostly Cloudy
3:53 PM 84.0 °F 83.3 °F 57.0 °F 40% 30.19 in 10.0 mi East 12.7 mph 18.4 mph N/A   Mostly Cloudy
4:53 PM 79.0 °F - 57.9 °F 48% 30.17 in 10.0 mi East 13.8 mph - N/A   Mostly Cloudy
5:53 PM 77.0 °F - 59.0 °F 54% 30.17 in 10.0 mi ESE 13.8 mph - N/A   Partly Cloudy
6:53 PM 75.9 °F - 59.0 °F 56% 30.18 in 10.0 mi East 12.7 mph - N/A   Partly Cloudy
7:53 PM 73.9 °F - 57.9 °F 57% 30.19 in 10.0 mi East 10.4 mph - N/A   Clear
8:53 PM 70.0 °F - 59.0 °F 68% 30.22 in 10.0 mi SE 5.8 mph - N/A   Clear
9:53 PM 69.1 °F - 61.0 °F 75% 30.24 in 10.0 mi East 5.8 mph - N/A   Clear
10:53 PM 66.9 °F - 61.0 °F 81% 30.25 in 10.0 mi East 3.5 mph - N/A   Clear
11:53 PM 66.0 °F - 61.0 °F 84% 30.25 in 10.0 mi East 4.6 mph - N/A   Clear